Location: Staunton
(38.1490°N, 79.0720°W)
Time: 23:15:52
(UTC-04:00)

ISS - Pass Details

Date: 15 November 2017
Orbit: 402 x 409 km, 51.6° (Epoch: 17 August)

Event Time Altitude Azimuth Distance (km) Brightness Sun altitude
Exits shadow 03:45:16 - 64° (ENE) 2,223 0.7 -37.8°
Enters shadow 04:42:59 -65° 286° (WNW) 12,046 3.6 -26.5°
Maximum altitude 05:18:51 31° 32° (NNE) 733 -2.4 -19.4°
